Flag for Austria Weather past 2 weeks in Gänserndorf, Lower Austria, Austria

Now
31 °F

Low clouds.


Feels Like: 21 °F
Forecast: 30 / 37 °F
Wind: 13 mph from Southeast

Location: Wien / Schwechat-Flughafen

Current Time: Jan 29, 2015 at 11:48:32 PM

Latest Report: Jan 29, 2015 at 11:00 PM


Visibility: 5 mi

Pressure: 29.21 "Hg

Humidity: 93%

Dew point: 29 °F

Location of GänserndorfLocation

Historic Weather in Gänserndorf — Graph

°F

Gänserndorf temperature yesterday

Maximum temperature yesterday: 41 °F (at 1:00 PM)
Minimum temperature yesterday: 27 °F (at 9:00 PM)
Average temperature yesterday: 36 °F

Past Weeks' High & Low Weather Summary

 TemperatureHumidityPressure
High53 °F (Jan 17, 6:00 AM)100% (Jan 20, 3:00 AM)30.34 "Hg (Jan 20, 3:00 AM)
Low24 °F (Jan 27, 2:00 AM)57% (Jan 15, 1:00 AM)29.29 "Hg (Jan 29, 9:00 PM)
Average37 °F84%29.99 "Hg
* Reported Jan 14 9:00 PM — Jan 29 9:00 PM, Gänserndorf, Weather by CustomWeather, © 2014

Note: Actual official high and low records may vary slightly from our data, if they occured in-between our weather recording intervals... More about our weather records

Advertising

Gänserndorf weather history for previous 24 hours

 ConditionsComfort  
Time TempWeatherWind HumidityBarometerVisibility
9:00 PM
Jan 29
31 °FLow clouds.9 mph96%29.29 "Hg4 mi
8:00 PM31 °FLow clouds.7 mph97%29.35 "Hg4 mi
7:00 PM31 °FLow clouds.6 mph97%29.38 "Hg4 mi
6:00 PM32 °FOvercast.5 mph97%29.41 "Hg5 mi
5:00 PM33 °FPassing clouds.6 mph92%29.44 "Hg22 mi
4:00 PM36 °FPartly sunny.5 mph86%29.44 "Hg22 mi
3:00 PM36 °FOvercast.5 mph81%29.47 "Hg12 mi
2:00 PM38 °FOvercast.N/A74%29.50 "Hg16 mi
1:00 PM37 °FOvercast.3 mph76%29.53 "Hg12 mi
12:00 PM36 °FOvercast.N/A75%29.55 "Hg19 mi
11:00 AM35 °FOvercast.3 mph78%29.57 "Hg16 mi
10:00 AM35 °FOvercast.N/A81%29.56 "Hg12 mi
9:00 AM33 °FOvercast.N/A82%29.57 "Hg11 mi
8:00 AM32 °FOvercast.3 mph86%29.57 "Hg13 mi
7:00 AM33 °FOvercast.3 mph89%29.56 "Hg9 mi
6:00 AM33 °FLight snow. Overcast.3 mph84%29.58 "Hg11 mi
5:00 AM34 °FLight snow. Overcast.5 mph79%29.58 "Hg19 mi
4:00 AM35 °FLight snow. Overcast.8 mph68%29.60 "Hg6 mi
3:00 AM35 °FOvercast.9 mph66%29.59 "Hg25 mi
2:00 AM35 °FOvercast.9 mph66%29.63 "Hg28 mi
1:00 AM34 °FOvercast.12 mph66%29.67 "Hg22 mi
12:00 AM33 °FPassing clouds.9 mph72%29.74 "Hg22 mi
11:00 PM
Jan 28
34 °FPassing clouds.10 mph72%29.76 "Hg22 mi
Weather by CustomWeather, © 2014

See weather overviewHow to use our weather pages